Total_Precipitation_Accumulation
0.05 0.04 0.04 0.05 0.04 0.04 0.04 0.03 0.03 0.04 0.03 0.02 0.01 0.01 0.00 0.00 0.00 0.00 0.00 0.00 0.00 0.00 0.00 0.00 0.00 0.00 0.00 0.00 0.00 0.00 0.00 0.00 0.00 0.00 0.00 0.00 0.00 0.00 0.01 0.03 0.04 0.19 0.19 0.07 0.13 0.08 0.11
0.05 0.04 0.04 0.05 0.04 0.04 0.04 0.04 0.03 0.04 0.03 0.02 0.01 0.00 0.00 0.00 0.00 0.00 0.00 0.00 0.00 0.00 0.00 0.00 0.00 0.00 0.00 0.00 0.00 0.00 0.00 0.00 0.00 0.00 0.00 0.00 0.00 0.00 0.00 0.00 0.09 0.05 0.02 0.05 0.08 0.14 0.25
0.06 0.05 0.05 0.05 0.05 0.05 0.04 0.04 0.04 0.04 0.04 0.02 0.01 0.00 0.00 0.00 0.00 0.00 0.00 0.00 0.00 0.00 0.00 0.00 0.00 0.00 0.00 0.00 0.00 0.00 0.00 0.00 0.00 0.00 0.00 0.00 0.00 0.01 0.02 0.01 0.00 0.01 0.02 0.03 0.04 0.04 0.22
0.05 0.05 0.06 0.05 0.06 0.05 0.05 0.04 0.04 0.04 0.03 0.02 0.01 0.00 0.00 0.00 0.00 0.00 0.00 0.00 0.00 0.00 0.00 0.00 0.00 0.00 0.00 0.00 0.00 0.00 0.00 0.00 0.00 0.00 0.00 0.00 0.00 0.03 0.03 0.03 0.01 0.01 0.06 0.09 0.01 0.00 0.03
0.05 0.05 0.06 0.06 0.06 0.06 0.06 0.04 0.04 0.04 0.02 0.01 0.00 0.00 0.00 0.00 0.00 0.00 0.00 0.00 0.00 0.00 0.00 0.00 0.00 0.00 0.00 0.00 0.00 0.00 0.00 0.00 0.00 0.00 0.00 0.00 0.06 0.06 0.07 0.12 0.12 0.07 0.09 0.05 0.01 0.00 0.02
0.04 0.04 0.04 0.05 0.06 0.05 0.05 0.04 0.04 0.03 0.02 0.02 0.00 0.00 0.00 0.00 0.00 0.00 0.00 0.00 0.00 0.00 0.00 0.00 0.00 0.00 0.00 0.00 0.00 0.00 0.00 0.00 0.00 0.00 0.00 0.01 0.08 0.11 0.11 0.25 0.27 0.04 0.06 0.03 0.01 0.00 0.04
0.03 0.03 0.03 0.04 0.05 0.05 0.05 0.05 0.04 0.03 0.02 0.02 0.00 0.00 0.00 0.00 0.00 0.00 0.00 0.00 0.00 0.00 0.00 0.00 0.00 0.00 0.00 0.00 0.00 0.00 0.00 0.00 0.00 0.00 0.00 0.00 0.03 0.03 0.03 0.06 0.06 0.07 0.06 0.04 0.00 0.00 0.02
0.02 0.03 0.03 0.03 0.04 0.04 0.04 0.04 0.03 0.03 0.01 0.01 0.00 0.00 0.00 0.00 0.00 0.00 0.00 0.00 0.00 0.00 0.00 0.00 0.00 0.00 0.00 0.00 0.00 0.00 0.00 0.00 0.00 0.00 0.00 0.00 0.02 0.00 0.01 0.02 0.04 0.06 0.11 0.07 0.03 0.01 0.08
0.02 0.03 0.03 0.03 0.03 0.03 0.03 0.03 0.03 0.02 0.01 0.01 0.00 0.00 0.00 0.00 0.00 0.00 0.00 0.00 0.00 0.00 0.00 0.00 0.00 0.00 0.00 0.00 0.00 0.00 0.00 0.00 0.00 0.00 0.00 0.01 0.00 0.00 0.01 0.05 0.09 0.07 0.08 0.08 0.09 0.04 0.05
0.02 0.02 0.02 0.03 0.03 0.03 0.02 0.02 0.02 0.02 0.01 0.01 0.00 0.00 0.00 0.00 0.00 0.00 0.00 0.00 0.00 0.00 0.00 0.00 0.00 0.00 0.00 0.00 0.00 0.00 0.00 0.00 0.00 0.00 0.01 0.00 0.00 0.00 0.01 0.06 0.15 0.16 0.01 0.04 0.03 0.15 0.10
0.02 0.03 0.03 0.02 0.02 0.02 0.02 0.02 0.02 0.02 0.02 0.01 0.00 0.00 0.00 0.00 0.00 0.00 0.00 0.00 0.00 0.00 0.00 0.00 0.00 0.00 0.00 0.00 0.00 0.00 0.00 0.00 0.00 0.00 0.07 0.04 0.01 0.01 0.03 0.05 0.13 0.12 0.02 0.04 0.06 0.10 0.24
0.02 0.02 0.03 0.03 0.02 0.02 0.02 0.01 0.01 0.02 0.01 0.00 0.00 0.00 0.00 0.00 0.00 0.00 0.00 0.00 0.00 0.00 0.00 0.00 0.00 0.00 0.00 0.00 0.00 0.00 0.00 0.00 0.00 0.00 0.00 0.01 0.00 0.07 0.08 0.12 0.09 0.13 0.17 0.17 0.21 0.28 0.49
0.02 0.02 0.03 0.03 0.02 0.02 0.03 0.02 0.02 0.01 0.01 0.00 0.00 0.00 0.00 0.00 0.00 0.00 0.00 0.00 0.00 0.00 0.00 0.00 0.00 0.00 0.00 0.00 0.00 0.00 0.00 0.00 0.02 0.12 0.02 0.00 0.01 0.09 0.14 0.13 0.05 0.49 0.41 0.38 0.41 0.40 0.15
0.01 0.02 0.02 0.03 0.02 0.02 0.03 0.02 0.02 0.00 0.00 0.00 0.00 0.00 0.00 0.00 0.00 0.00 0.00 0.00 0.00 0.00 0.00 0.00 0.00 0.00 0.00 0.00 0.00 0.00 0.00 0.00 0.00 0.10 0.09 0.01 0.04 0.04 0.09 0.34 0.26 0.53 0.38 0.29 0.17 0.16 0.08
0.02 0.02 0.02 0.03 0.03 0.02 0.02 0.03 0.02 0.01 0.00 0.00 0.00 0.00 0.00 0.00 0.00 0.00 0.00 0.00 0.00 0.00 0.00 0.00 0.00 0.00 0.00 0.00 0.00 0.00 0.00 0.00 0.00 0.07 0.34 0.08 0.03 0.03 0.16 0.26 0.27 0.35 0.30 0.18 0.28 0.14 0.16
0.01 0.01 0.02 0.03 0.02 0.02 0.03 0.03 0.03 0.01 0.00 0.00 0.00 0.00 0.00 0.00 0.00 0.00 0.00 0.00 0.00 0.00 0.00 0.00 0.00 0.00 0.00 0.00 0.00 0.00 0.00 0.00 0.00 0.00 0.12 0.15 0.19 0.02 0.02 0.11 0.20 0.36 0.21 0.23 0.30 0.37 0.27
0.01 0.01 0.02 0.02 0.02 0.02 0.03 0.03 0.03 0.02 0.00 0.00 0.00 0.00 0.00 0.00 0.00 0.00 0.00 0.00 0.00 0.00 0.00 0.00 0.00 0.00 0.00 0.01 0.01 0.01 0.01 0.00 0.00 0.00 0.01 0.10 0.15 0.02 0.02 0.13 0.24 0.25 0.25 0.37 0.22 0.29 0.46
0.01 0.01 0.02 0.02 0.01 0.02 0.03 0.03 0.04 0.02 0.01 0.00 0.00 0.00 0.00 0.00 0.00 0.00 0.00 0.00 0.00 0.00 0.00 0.00 0.00 0.00 0.02 0.01 0.02 0.00 0.00 0.00 0.00 0.00 0.02 0.04 0.12 0.05 0.10 0.14 0.08 0.11 0.22 0.36 0.29 0.49 0.43
0.01 0.02 0.02 0.02 0.01 0.01 0.03 0.03 0.05 0.04 0.02 0.00 0.00 0.00 0.00 0.00 0.00 0.00 0.00 0.00 0.00 0.00 0.00 0.00 0.00 0.00 0.00 0.00 0.02 0.00 0.00 0.00 0.00 0.00 0.06 0.06 0.04 0.02 0.02 0.03 0.01 0.02 0.06 0.20 0.31 0.48 0.41
0.01 0.02 0.02 0.02 0.01 0.01 0.03 0.04 0.06 0.07 0.02 0.00 0.00 0.00 0.00 0.00 0.00 0.00 0.01 0.00 0.00 0.00 0.00 0.00 0.00 0.00 0.02 0.00 0.00 0.00 0.00 0.00 0.00 0.00 0.01 0.04 0.04 0.02 0.03 0.06 0.05 0.02 0.01 0.07 0.14 0.23 0.27
0.01 0.02 0.02 0.02 0.02 0.01 0.02 0.03 0.06 0.09 0.01 0.01 0.00 0.00 0.00 0.00 0.00 0.00 0.01 0.00 0.00 0.00 0.00 0.00 0.00 0.00 0.02 0.03 0.00 0.00 0.00 0.00 0.00 0.00 0.00 0.00 0.04 0.01 0.02 0.04 0.03 0.02 0.01 0.04 0.07 0.15 0.17
0.02 0.02 0.02 0.03 0.02 0.02 0.02 0.03 0.05 0.14 0.03 0.01 0.02 0.04 0.05 0.02 0.00 0.00 0.00 0.00 0.01 0.01 0.01 0.00 0.00 0.00 0.00 0.02 0.00 0.00 0.01 0.02 0.01 0.00 0.00 0.01 0.02 0.04 0.03 0.05 0.06 0.04 0.01 0.02 0.04 0.07 0.09
0.02 0.02 0.02 0.03 0.03 0.02 0.02 0.03 0.05 0.18 0.13 0.05 0.07 0.11 0.13 0.05 0.01 0.02 0.01 0.00 0.00 0.05 0.03 0.00 0.00 0.03 0.01 0.00 0.00 0.00 0.00 0.00 0.00 0.03 0.04 0.07 0.03 0.04 0.04 0.04 0.06 0.05 0.03 0.03 0.06 0.09 0.09
0.03 0.03 0.03 0.04 0.03 0.03 0.03 0.03 0.05 0.11 0.26 0.15 0.16 0.20 0.30 0.13 0.03 0.01 0.01 0.01 0.00 0.01 0.05 0.01 0.02 0.12 0.03 0.00 0.01 0.01 0.00 0.00 0.00 0.01 0.02 0.05 0.04 0.04 0.02 0.00 0.01 0.02 0.03 0.02 0.03 0.08 0.09
0.06 0.06 0.06 0.06 0.04 0.04 0.05 0.05 0.07 0.10 0.31 0.28 0.21 0.34 0.49 0.32 0.04 0.02 0.00 0.01 0.02 0.01 0.03 0.05 0.02 0.03 0.06 0.08 0.06 0.02 0.00 0.00 0.00 0.00 0.00 0.01 0.04 0.03 0.01 0.00 0.01 0.02 0.02 0.03 0.05 0.07 0.07
0.11 0.12 0.11 0.10 0.09 0.10 0.10 0.12 0.16 0.21 0.37 0.38 0.25 0.39 0.72 0.59 0.14 0.01 0.03 0.04 0.08 0.11 0.12 0.03 0.00 0.04 0.10 0.10 0.08 0.05 0.00 0.00 0.00 0.00 0.01 0.01 0.03 0.04 0.01 0.01 0.01 0.01 0.01 0.02 0.04 0.06 0.04
0.14 0.16 0.16 0.16 0.18 0.20 0.21 0.23 0.28 0.33 0.44 0.56 0.42 0.35 0.94 0.89 0.16 0.01 0.06 0.14 0.17 0.22 0.31 0.12 0.05 0.08 0.07 0.11 0.10 0.04 0.01 0.00 0.00 0.00 0.01 0.01 0.03 0.05 0.02 0.05 0.03 0.02 0.00 0.01 0.03 0.03 0.01
0.15 0.17 0.18 0.19 0.23 0.27 0.31 0.36 0.38 0.45 0.53 0.91 0.76 0.40 0.90 1.14 0.38 0.03 0.01 0.06 0.26 0.37 0.42 0.35 0.31 0.15 0.12 0.11 0.06 0.02 0.02 0.00 0.00 0.00 0.01 0.01 0.03 0.03 0.04 0.07 0.04 0.01 0.00 0.01 0.01 0.01 0.01
0.17 0.18 0.20 0.22 0.23 0.25 0.33 0.40 0.43 0.50 0.72 1.17 1.14 0.43 0.76 1.42 0.71 0.09 0.02 0.01 0.07 0.19 0.52 0.63 0.27 0.14 0.18 0.14 0.09 0.14 0.07 0.04 0.01 0.03 0.01 0.03 0.02 0.03 0.02 0.02 0.03 0.02 0.01 0.02 0.01 0.01 0.01